Location: *
(50.8160°S, 176.0219°W)
Time: 02:11:59
(UTC+00:00)

Cosmos 1371 Rocket - Pass Details

Date: 19 May 2026
Orbit: 749 x 785 km, 74.0° (Epoch: 8 June)

Event Time Altitude Azimuth Distance (km) Brightness Sun altitude
Rises 18:12:17 0° 328° (NNW) 3,212 7.1 -10.5°
Reaches altitude 10° 18:14:40 10° 324° (NW) 2,291 6.3 -10.1°
Maximum altitude 18:19:49 64° 242° (WSW) 846 4.0 -9.4°
Drops below altitude 10° 18:25:02 10° 160° (SSE) 2,310 6.5 -8.6°
Sets 18:27:27 0° 157° (SSE) 3,242 7.3 -8.2°
